Time,TemperatureF,DewpointF,PressureIn,WindDirection,WindDirectionDegrees,WindSpeedMPH,WindSpeedGustMPH,Humidity,HourlyPrecipIn,Conditions,Clouds,dailyrainin,SoftwareType,DateUTC
2013-03-01 00:00:00,26.4,17.9,29.68,West,269,0.0,0.0,70,0.00,,,0.00,Wunderground v.1.15,2013-03-01 05:00:00,
2013-03-01 00:05:00,26.6,18.1,29.67,West,269,0.0,0.0,70,0.00,,,0.00,Wunderground v.1.15,2013-03-01 05:05:00,
2013-03-01 00:10:00,26.6,18.1,29.67,West,269,0.0,0.0,70,0.00,,,0.00,Wunderground v.1.15,2013-03-01 05:10:00,
2013-03-01 00:15:00,26.6,18.5,29.68,West,269,0.0,0.0,71,0.00,,,0.00,Wunderground v.1.15,2013-03-01 05:15:00,
2013-03-01 00:20:00,26.3,18.2,29.67,West,270,0.0,1.0,71,0.00,,,0.00,Wunderground v.1.15,2013-03-01 05:20:00,
2013-03-01 00:30:00,26.1,18.6,29.68,West,269,0.0,0.0,73,0.00,,,0.00,Wunderground v.1.15,2013-03-01 05:30:00,
2013-03-01 00:40:00,26.0,18.2,29.69,West,269,0.0,0.0,72,0.00,,,0.00,Wunderground v.1.15,2013-03-01 05:40:00,
2013-03-01 00:50:00,26.0,18.2,29.68,West,269,0.0,0.0,72,0.00,,,0.00,Wunderground v.1.15,2013-03-01 05:50:00,
2013-03-01 01:00:00,26.1,18.0,29.67,West,269,0.0,0.0,71,0.00,,,0.00,Wunderground v.1.15,2013-03-01 06:00:00,
2013-03-01 01:05:00,26.1,18.0,29.67,West,269,0.0,0.0,71,0.00,,,0.00,Wunderground v.1.15,2013-03-01 06:05:00,
2013-03-01 01:10:00,26.1,18.0,29.67,West,269,0.0,0.0,71,0.00,,,0.00,Wunderground v.1.15,2013-03-01 06:10:00,
2013-03-01 01:20:00,26.4,18.3,29.67,NE,35,0.0,1.0,71,0.00,,,0.00,Wunderground v.1.15,2013-03-01 06:20:00,
2013-03-01 01:25:00,26.7,18.6,29.67,NE,34,0.0,1.0,71,0.00,,,0.00,Wunderground v.1.15,2013-03-01 06:25:00,
2013-03-01 01:30:00,26.9,18.7,29.67,East,86,0.0,0.0,71,0.00,,,0.00,Wunderground v.1.15,2013-03-01 06:30:00,
2013-03-01 01:40:00,27.0,18.8,29.66,East,86,0.0,0.0,71,0.00,,,0.00,Wunderground v.1.15,2013-03-01 06:40:00,
2013-03-01 01:50:00,27.0,18.8,29.67,East,86,0.0,0.0,71,0.00,,,0.00,Wunderground v.1.15,2013-03-01 06:50:00,
2013-03-01 02:00:00,27.3,19.1,29.66,NW,324,0.0,0.0,71,0.00,,,0.00,Wunderground v.1.15,2013-03-01 07:00:00,
2013-03-01 02:05:00,27.3,19.1,29.66,NW,324,0.0,0.0,71,0.00,,,0.00,Wunderground v.1.15,2013-03-01 07:05:00,
2013-03-01 02:15:00,27.3,19.1,29.66,West,269,0.0,1.0,71,0.00,,,0.00,Wunderground v.1.15,2013-03-01 07:15:00,
2013-03-01 02:20:00,27.3,19.1,29.66,NNW,331,0.0,0.0,71,0.00,,,0.00,Wunderground v.1.15,2013-03-01 07:20:00,
2013-03-01 02:30:00,27.2,19.0,29.66,NNW,328,0.0,0.0,71,0.00,,,0.00,Wunderground v.1.15,2013-03-01 07:30:00,
2013-03-01 02:40:00,27.0,19.2,29.66,NW,325,0.0,0.0,72,0.00,,,0.00,Wunderground v.1.15,2013-03-01 07:40:00,
2013-03-01 02:50:00,27.0,19.2,29.66,NW,325,0.0,0.0,72,0.00,,,0.00,Wunderground v.1.15,2013-03-01 07:50:00,
2013-03-01 02:55:00,27.0,19.2,29.66,NW,325,0.0,0.0,72,0.00,,,0.00,Wunderground v.1.15,2013-03-01 07:55:00,
2013-03-01 03:00:00,26.9,19.1,29.66,NW,325,0.0,0.0,72,0.00,,,0.00,Wunderground v.1.15,2013-03-01 08:00:00,
2013-03-01 03:10:00,27.0,19.5,29.66,NW,325,0.0,0.0,73,0.00,,,0.00,Wunderground v.1.15,2013-03-01 08:10:00,
2013-03-01 03:20:00,26.9,19.4,29.66,NW,325,0.0,0.0,73,0.00,,,0.00,Wunderground v.1.15,2013-03-01 08:20:00,
2013-03-01 03:30:00,26.9,19.4,29.65,NW,325,0.0,0.0,73,0.00,,,0.00,Wunderground v.1.15,2013-03-01 08:30:00,
2013-03-01 03:40:00,27.0,19.2,29.66,NW,325,0.0,0.0,72,0.00,,,0.00,Wunderground v.1.15,2013-03-01 08:40:00,
2013-03-01 03:50:00,27.2,19.7,29.66,NW,325,0.0,0.0,73,0.00,,,0.00,Wunderground v.1.15,2013-03-01 08:50:00,
2013-03-01 04:00:00,27.3,19.5,29.66,NE,40,1.0,2.0,72,0.00,,,0.00,Wunderground v.1.15,2013-03-01 09:00:00,
2013-03-01 04:10:00,27.5,19.3,29.66,East,84,1.0,1.0,71,0.00,,,0.00,Wunderground v.1.15,2013-03-01 09:10:00,
2013-03-01 04:15:00,27.5,19.3,29.66,East,92,0.0,1.0,71,0.00,,,0.00,Wunderground v.1.15,2013-03-01 09:15:00,
2013-03-01 04:25:00,27.5,19.3,29.67,ESE,119,0.0,1.0,71,0.00,,,0.00,Wunderground v.1.15,2013-03-01 09:25:00,
2013-03-01 04:30:00,27.6,19.4,29.67,ENE,61,0.0,0.0,71,0.00,,,0.00,Wunderground v.1.15,2013-03-01 09:30:00,
2013-03-01 04:40:00,27.6,19.1,29.67,ENE,76,1.0,1.0,70,0.00,,,0.00,Wunderground v.1.15,2013-03-01 09:40:00,
2013-03-01 04:50:00,27.3,19.1,29.68,NE,44,0.0,0.0,71,0.00,,,0.00,Wunderground v.1.15,2013-03-01 09:50:00,
2013-03-01 05:00:00,27.2,19.0,29.68,NE,44,0.0,0.0,71,0.00,,,0.00,Wunderground v.1.15,2013-03-01 10:00:00,
2013-03-01 05:10:00,27.0,18.8,29.70,NE,44,0.0,0.0,71,0.00,,,0.00,Wunderground v.1.15,2013-03-01 10:10:00,
2013-03-01 05:25:00,26.6,19.4,29.70,NE,44,0.0,0.0,74,0.00,,,0.00,Wunderground v.1.15,2013-03-01 10:25:00,
2013-03-01 05:30:00,26.3,19.1,29.71,NE,44,0.0,0.0,74,0.00,,,0.00,Wunderground v.1.15,2013-03-01 10:30:00,
2013-03-01 05:40:00,25.8,19.3,29.70,NE,44,0.0,0.0,76,0.00,,,0.00,Wunderground v.1.15,2013-03-01 10:40:00,
2013-03-01 05:50:00,25.7,19.2,29.70,NE,44,0.0,0.0,76,0.00,,,0.00,Wunderground v.1.15,2013-03-01 10:50:00,
2013-03-01 06:00:00,25.4,19.2,29.71,NE,44,0.0,0.0,77,0.00,,,0.00,Wunderground v.1.15,2013-03-01 11:00:00,
2013-03-01 06:10:00,25.3,19.1,29.72,NE,44,0.0,0.0,77,0.00,,,0.00,Wunderground v.1.15,2013-03-01 11:10:00,
2013-03-01 06:20:00,25.1,19.2,29.72,NE,44,0.0,0.0,78,0.00,,,0.00,Wunderground v.1.15,2013-03-01 11:20:00,
2013-03-01 06:30:00,25.0,19.7,29.72,NE,44,0.0,0.0,80,0.00,,,0.00,Wunderground v.1.15,2013-03-01 11:30:00,
2013-03-01 06:40:00,25.0,19.7,29.72,NE,44,0.0,0.0,80,0.00,,,0.00,Wunderground v.1.15,2013-03-01 11:40:00,
2013-03-01 06:50:00,25.0,19.7,29.72,NE,44,0.0,0.0,80,0.00,,,0.00,Wunderground v.1.15,2013-03-01 11:50:00,
2013-03-01 07:00:00,25.3,19.7,29.72,NE,44,0.0,0.0,79,0.00,,,0.00,Wunderground v.1.15,2013-03-01 12:00:00,
2013-03-01 07:10:00,25.3,19.7,29.72,NE,44,0.0,0.0,79,0.00,,,0.00,Wunderground v.1.15,2013-03-01 12:10:00,
2013-03-01 07:20:00,25.1,19.8,29.72,NE,44,0.0,0.0,80,0.00,,,0.00,Wunderground v.1.15,2013-03-01 12:20:00,
2013-03-01 07:30:00,25.3,20.0,29.72,NE,44,0.0,0.0,80,0.00,,,0.00,Wunderground v.1.15,2013-03-01 12:30:00,
2013-03-01 07:35:00,25.6,20.0,29.72,NE,44,0.0,0.0,79,0.00,,,0.00,Wunderground v.1.15,2013-03-01 12:35:00,
2013-03-01 07:45:00,25.8,20.2,29.72,NE,44,0.0,0.0,79,0.00,,,0.00,Wunderground v.1.15,2013-03-01 12:45:00,
2013-03-01 07:55:00,26.1,20.2,29.73,NE,44,0.0,0.0,78,0.00,,,0.00,Wunderground v.1.15,2013-03-01 12:55:00,
2013-03-01 08:00:00,26.3,20.1,29.73,NE,44,0.0,0.0,77,0.00,,,0.00,Wunderground v.1.15,2013-03-01 13:00:00,
2013-03-01 08:10:00,26.6,20.1,29.73,NE,44,0.0,0.0,76,0.00,,,0.00,Wunderground v.1.15,2013-03-01 13:10:00,
2013-03-01 08:20:00,27.0,20.4,29.74,NE,44,0.0,0.0,76,0.00,,,0.00,Wunderground v.1.15,2013-03-01 13:20:00,
2013-03-01 08:30:00,27.6,20.7,29.73,NE,44,0.0,0.0,75,0.00,,,0.00,Wunderground v.1.15,2013-03-01 13:30:00,
2013-03-01 08:40:00,28.4,20.8,29.73,NE,46,0.0,0.0,73,0.00,,,0.00,Wunderground v.1.15,2013-03-01 13:40:00,
2013-03-01 08:45:00,28.8,20.6,29.73,NE,46,0.0,0.0,71,0.00,,,0.00,Wunderground v.1.15,2013-03-01 13:45:00,
2013-03-01 08:50:00,29.1,20.9,29.73,NE,46,0.0,0.0,71,0.00,,,0.00,Wunderground v.1.15,2013-03-01 13:50:00,
2013-03-01 09:00:00,29.8,20.9,29.72,ESE,122,0.0,1.0,69,0.00,,,0.00,Wunderground v.1.15,2013-03-01 14:00:00,
2013-03-01 09:10:00,30.6,21.3,29.73,ESE,122,0.0,0.0,68,0.00,,,0.00,Wunderground v.1.15,2013-03-01 14:10:00,
2013-03-01 09:20:00,31.0,20.6,29.73,NNE,27,0.0,0.0,65,0.00,,,0.00,Wunderground v.1.15,2013-03-01 14:20:00,
2013-03-01 09:30:00,31.3,20.9,29.73,WNW,285,1.0,1.0,65,0.00,,,0.00,Wunderground v.1.15,2013-03-01 14:30:00,
2013-03-01 09:40:00,31.9,20.7,29.72,NNE,13,0.0,0.0,63,0.00,,,0.00,Wunderground v.1.15,2013-03-01 14:40:00,
2013-03-01 09:50:00,32.2,21.0,29.73,WNW,283,0.0,1.0,63,0.00,,,0.00,Wunderground v.1.15,2013-03-01 14:50:00,
2013-03-01 10:00:00,32.4,20.4,29.73,NE,46,1.0,1.0,61,0.00,,,0.00,Wunderground v.1.15,2013-03-01 15:00:00,
2013-03-01 10:05:00,32.5,20.9,29.73,NE,38,1.0,3.0,62,0.00,,,0.00,Wunderground v.1.15,2013-03-01 15:05:00,
2013-03-01 10:15:00,32.8,20.0,29.73,NE,38,1.0,1.0,59,0.00,,,0.00,Wunderground v.1.15,2013-03-01 15:15:00,
2013-03-01 10:20:00,32.9,20.5,29.73,West,273,1.0,1.0,60,0.00,,,0.00,Wunderground v.1.15,2013-03-01 15:20:00,
2013-03-01 10:30:00,32.9,20.1,29.73,NE,40,1.0,1.0,59,0.00,,,0.00,Wunderground v.1.15,2013-03-01 15:30:00,
2013-03-01 10:40:00,33.8,20.6,29.73,WNW,299,0.0,0.0,58,0.00,,,0.00,Wunderground v.1.15,2013-03-01 15:40:00,
2013-03-01 10:50:00,34.6,20.5,29.73,North,11,0.0,0.0,56,0.00,,,0.00,Wunderground v.1.15,2013-03-01 15:50:00,
2013-03-01 11:00:00,35.0,21.3,29.72,North,11,0.0,0.0,57,0.00,,,0.00,Wunderground v.1.15,2013-03-01 16:00:00,
2013-03-01 11:10:00,35.8,20.8,29.73,North,11,0.0,0.0,54,0.00,,,0.00,Wunderground v.1.15,2013-03-01 16:10:00,
2013-03-01 11:55:00,37.3,21.7,29.71,West,277,1.0,1.0,53,0.00,,,0.00,Wunderground v.1.15,2013-03-01 16:55:00,
2013-03-01 12:05:00,37.3,22.6,29.72,West,277,1.0,1.0,55,0.00,,,0.00,Wunderground v.1.15,2013-03-01 17:05:00,
2013-03-01 12:10:00,37.2,21.6,29.71,NW,322,1.0,1.0,53,0.00,,,0.00,Wunderground v.1.15,2013-03-01 17:10:00,
2013-03-01 12:20:00,37.8,21.7,29.70,West,263,1.0,1.0,52,0.00,,,0.00,Wunderground v.1.15,2013-03-01 17:20:00,
2013-03-01 12:25:00,38.0,21.5,29.71,West,275,1.0,2.0,51,0.00,,,0.00,Wunderground v.1.15,2013-03-01 17:25:00,
2013-03-01 12:30:00,38.5,22.8,29.71,West,263,1.0,1.0,53,0.00,,,0.00,Wunderground v.1.15,2013-03-01 17:30:00,
2013-03-01 12:40:00,39.2,22.1,29.70,WNW,296,0.0,0.0,50,0.00,,,0.00,Wunderground v.1.15,2013-03-01 17:40:00,
2013-03-01 12:50:00,39.2,22.6,29.70,NW,309,1.0,1.0,51,0.00,,,0.00,Wunderground v.1.15,2013-03-01 17:50:00,
2013-03-01 13:00:00,39.3,21.2,29.69,NW,305,1.0,1.0,48,0.00,,,0.00,Wunderground v.1.15,2013-03-01 18:00:00,
2013-03-01 13:10:00,39.5,22.4,29.68,WSW,256,1.0,1.0,50,0.00,,,0.00,Wunderground v.1.15,2013-03-01 18:10:00,
2013-03-01 13:15:00,39.2,21.6,29.68,NE,40,1.0,2.0,49,0.00,,,0.00,Wunderground v.1.15,2013-03-01 18:15:00,
2013-03-01 13:20:00,39.5,21.9,29.68,West,267,1.0,1.0,49,0.00,,,0.00,Wunderground v.1.15,2013-03-01 18:20:00,
2013-03-01 13:30:00,40.1,21.5,29.67,NNE,28,1.0,2.0,47,0.00,,,0.00,Wunderground v.1.15,2013-03-01 18:30:00,
2013-03-01 13:40:00,40.3,23.1,29.66,NNW,327,1.0,1.0,50,0.00,,,0.00,Wunderground v.1.15,2013-03-01 18:40:00,
2013-03-01 13:45:00,40.8,22.6,29.66,West,265,1.0,1.0,48,0.00,,,0.00,Wunderground v.1.15,2013-03-01 18:45:00,
2013-03-01 13:55:00,40.3,22.6,29.66,WSW,256,1.0,1.0,49,0.00,,,0.00,Wunderground v.1.15,2013-03-01 18:55:00,
2013-03-01 14:05:00,39.8,21.7,29.66,West,267,1.0,1.0,48,0.00,,,0.00,Wunderground v.1.15,2013-03-01 19:05:00,
2013-03-01 14:10:00,40.1,21.5,29.66,West,273,1.0,2.0,47,0.00,,,0.00,Wunderground v.1.15,2013-03-01 19:10:00,
2013-03-01 14:20:00,39.6,21.5,29.66,NNE,18,2.0,2.0,48,0.00,,,0.00,Wunderground v.1.15,2013-03-01 19:20:00,
2013-03-01 14:30:00,39.6,21.0,29.66,NNE,26,1.0,1.0,47,0.00,,,0.00,Wunderground v.1.15,2013-03-01 19:30:00,
2013-03-01 14:40:00,40.6,21.9,29.65,NNW,348,0.0,0.0,47,0.00,,,0.00,Wunderground v.1.15,2013-03-01 19:40:00,
2013-03-01 14:50:00,41.3,22.1,29.65,WNW,290,0.0,2.0,46,0.00,,,0.00,Wunderground v.1.15,2013-03-01 19:50:00,
2013-03-01 15:00:00,40.2,21.0,29.66,West,269,2.0,2.0,46,0.00,,,0.00,Wunderground v.1.15,2013-03-01 20:00:00,
2013-03-01 15:10:00,39.9,21.3,29.65,West,269,0.0,1.0,47,0.00,,,0.00,Wunderground v.1.15,2013-03-01 20:10:00,
2013-03-01 15:15:00,40.1,22.4,29.65,NNE,19,0.0,1.0,49,0.00,,,0.00,Wunderground v.1.15,2013-03-01 20:15:00,
2013-03-01 15:25:00,39.5,22.4,29.65,NE,48,2.0,6.0,50,0.00,,,0.00,Wunderground v.1.15,2013-03-01 20:25:00,
2013-03-01 15:35:00,38.2,22.6,29.66,ENE,57,2.0,6.0,53,0.00,,,0.00,Wunderground v.1.15,2013-03-01 20:35:00,
2013-03-01 15:40:00,37.8,23.5,29.66,SW,228,2.0,2.0,56,0.00,,,0.00,Wunderground v.1.15,2013-03-01 20:40:00,
2013-03-01 15:50:00,37.2,22.9,29.66,NE,51,3.0,3.0,56,0.00,,,0.00,Wunderground v.1.15,2013-03-01 20:50:00,
2013-03-01 16:00:00,37.0,22.7,29.66,ENE,64,2.0,2.0,56,0.00,,,0.00,Wunderground v.1.15,2013-03-01 21:00:00,
2013-03-01 16:10:00,37.2,23.4,29.66,West,275,1.0,1.0,57,0.00,,,0.00,Wunderground v.1.15,2013-03-01 21:10:00,
2013-03-01 16:20:00,37.9,24.0,29.66,NNE,24,0.0,0.0,57,0.00,,,0.00,Wunderground v.1.15,2013-03-01 21:20:00,
2013-03-01 16:25:00,37.9,24.0,29.66,NNE,25,0.0,1.0,57,0.00,,,0.00,Wunderground v.1.15,2013-03-01 21:25:00,
2013-03-01 16:35:00,37.6,23.3,29.66,ENE,67,1.0,2.0,56,0.00,,,0.00,Wunderground v.1.15,2013-03-01 21:35:00,
2013-03-01 16:40:00,37.3,23.4,29.66,NE,39,2.0,3.0,57,0.00,,,0.00,Wunderground v.1.15,2013-03-01 21:40:00,
2013-03-01 16:50:00,36.6,23.2,29.66,ESE,107,2.0,3.0,58,0.00,,,0.00,Wunderground v.1.15,2013-03-01 21:50:00,
2013-03-01 17:00:00,35.9,23.0,29.68,NNE,15,2.0,4.0,59,0.00,,,0.00,Wunderground v.1.15,2013-03-01 22:00:00,
2013-03-01 17:10:00,35.8,23.3,29.68,NE,48,2.0,2.0,60,0.00,,,0.00,Wunderground v.1.15,2013-03-01 22:10:00,
2013-03-01 17:20:00,35.6,23.5,29.69,NNE,13,1.0,1.0,61,0.00,,,0.00,Wunderground v.1.15,2013-03-01 22:20:00,
2013-03-01 17:30:00,35.2,23.1,29.69,ENE,61,1.0,2.0,61,0.00,,,0.00,Wunderground v.1.15,2013-03-01 22:30:00,
2013-03-01 17:40:00,34.9,22.4,29.69,North,355,2.0,2.0,60,0.00,,,0.00,Wunderground v.1.15,2013-03-01 22:40:00,
2013-03-01 17:45:00,34.9,22.8,29.69,North,355,1.0,2.0,61,0.00,,,0.00,Wunderground v.1.15,2013-03-01 22:45:00,
2013-03-01 17:50:00,35.0,22.9,29.69,North,355,0.0,0.0,61,0.00,,,0.00,Wunderground v.1.15,2013-03-01 22:50:00,
2013-03-01 18:00:00,34.6,22.1,29.69,ENE,68,1.0,1.0,60,0.00,,,0.00,Wunderground v.1.15,2013-03-01 23:00:00,
2013-03-01 18:10:00,34.3,22.2,29.70,NE,51,1.0,1.0,61,0.00,,,0.00,Wunderground v.1.15,2013-03-01 23:10:00,
2013-03-01 18:20:00,34.1,22.0,29.70,North,5,1.0,1.0,61,0.00,,,0.00,Wunderground v.1.15,2013-03-01 23:20:00,
2013-03-01 18:30:00,33.8,21.8,29.71,ENE,59,0.0,0.0,61,0.00,,,0.00,Wunderground v.1.15,2013-03-01 23:30:00,
2013-03-01 18:40:00,33.5,21.5,29.71,NNE,18,1.0,3.0,61,0.00,,,0.00,Wunderground v.1.15,2013-03-01 23:40:00,
2013-03-01 18:50:00,33.4,21.8,29.72,SE,125,1.0,4.0,62,0.00,,,0.00,Wunderground v.1.15,2013-03-01 23:50:00,
2013-03-01 18:55:00,33.2,21.6,29.71,NNW,348,1.0,4.0,62,0.00,,,0.00,Wunderground v.1.15,2013-03-01 23:55:00,
2013-03-01 19:05:00,33.2,22.0,29.71,NNE,12,0.0,1.0,63,0.00,,,0.00,Wunderground v.1.15,2013-03-02 00:05:00,
2013-03-01 19:10:00,33.2,21.6,29.71,NNE,12,0.0,0.0,62,0.00,,,0.00,Wunderground v.1.15,2013-03-02 00:10:00,
2013-03-01 19:20:00,33.1,21.5,29.71,NE,35,1.0,1.0,62,0.00,,,0.00,Wunderground v.1.15,2013-03-02 00:20:00,
2013-03-01 19:25:00,33.1,21.5,29.72,NE,39,1.0,1.0,62,0.00,,,0.00,Wunderground v.1.15,2013-03-02 00:25:00,
2013-03-01 19:30:00,32.9,20.9,29.71,NE,34,1.0,1.0,61,0.00,,,0.00,Wunderground v.1.15,2013-03-02 00:30:00,
2013-03-01 19:40:00,32.9,20.9,29.72,East,83,1.0,1.0,61,0.00,,,0.00,Wunderground v.1.15,2013-03-02 00:40:00,
2013-03-01 19:50:00,32.9,20.9,29.72,NE,53,0.0,0.0,61,0.00,,,0.00,Wunderground v.1.15,2013-03-02 00:50:00,
2013-03-01 20:00:00,32.8,20.8,29.72,WNW,291,0.0,0.0,61,0.00,,,0.00,Wunderground v.1.15,2013-03-02 01:00:00,
2013-03-01 20:10:00,32.9,21.3,29.71,WNW,286,0.0,0.0,62,0.00,,,0.00,Wunderground v.1.15,2013-03-02 01:10:00,
2013-03-01 20:15:00,32.9,21.3,29.71,WNW,286,0.0,1.0,62,0.00,,,0.00,Wunderground v.1.15,2013-03-02 01:15:00,
2013-03-01 20:25:00,32.7,21.5,29.71,NE,56,1.0,1.0,63,0.00,,,0.00,Wunderground v.1.15,2013-03-02 01:25:00,
2013-03-01 20:35:00,32.7,21.5,29.71,NNE,15,1.0,2.0,63,0.00,,,0.00,Wunderground v.1.15,2013-03-02 01:35:00,
2013-03-01 20:40:00,32.5,21.3,29.71,ENE,77,0.0,1.0,63,0.00,,,0.00,Wunderground v.1.15,2013-03-02 01:40:00,
2013-03-01 20:50:00,32.5,21.3,29.70,ENE,57,0.0,1.0,63,0.00,,,0.00,Wunderground v.1.15,2013-03-02 01:50:00,
2013-03-01 21:00:00,32.5,21.3,29.70,NNE,33,1.0,1.0,63,0.00,,,0.00,Wunderground v.1.15,2013-03-02 02:00:00,
2013-03-01 21:10:00,32.4,21.2,29.70,East,88,1.0,1.0,63,0.00,,,0.00,Wunderground v.1.15,2013-03-02 02:10:00,
2013-03-01 21:20:00,32.4,21.2,29.70,NE,43,0.0,0.0,63,0.00,,,0.00,Wunderground v.1.15,2013-03-02 02:20:00,
2013-03-01 21:25:00,32.4,21.2,29.70,NE,43,0.0,0.0,63,0.00,,,0.00,Wunderground v.1.15,2013-03-02 02:25:00,
2013-03-01 21:35:00,32.2,21.0,29.71,ESE,107,0.0,0.0,63,0.00,,,0.00,Wunderground v.1.15,2013-03-02 02:35:00,
2013-03-01 21:40:00,32.2,21.0,29.71,ESE,107,0.0,0.0,63,0.00,,,0.00,Wunderground v.1.15,2013-03-02 02:40:00,
2013-03-01 21:50:00,32.2,20.6,29.71,ESE,112,0.0,0.0,62,0.00,,,0.00,Wunderground v.1.15,2013-03-02 02:50:00,
2013-03-01 22:00:00,32.2,20.2,29.71,NNW,335,0.0,0.0,61,0.00,,,0.00,Wunderground v.1.15,2013-03-02 03:00:00,
2013-03-01 22:10:00,32.2,20.2,29.69,NNW,335,0.0,0.0,61,0.00,,,0.00,Wunderground v.1.15,2013-03-02 03:10:00,
2013-03-01 22:20:00,32.1,20.2,29.70,NE,39,0.0,0.0,61,0.00,,,0.00,Wunderground v.1.15,2013-03-02 03:20:00,
2013-03-01 22:30:00,31.9,20.3,29.69,NE,48,1.0,1.0,62,0.00,,,0.00,Wunderground v.1.15,2013-03-02 03:30:00,
2013-03-01 22:35:00,31.9,20.3,29.69,NE,48,0.0,1.0,62,0.00,,,0.00,Wunderground v.1.15,2013-03-02 03:35:00,
2013-03-01 22:40:00,31.9,20.0,29.69,NE,48,0.0,0.0,61,0.00,,,0.00,Wunderground v.1.15,2013-03-02 03:40:00,
2013-03-01 22:50:00,31.8,20.3,29.69,NE,52,0.0,1.0,62,0.00,,,0.00,Wunderground v.1.15,2013-03-02 03:50:00,
2013-03-01 23:00:00,31.8,20.3,29.68,NNE,28,1.0,1.0,62,0.00,,,0.00,Wunderground v.1.15,2013-03-02 04:00:00,
2013-03-01 23:10:00,31.6,20.1,29.68,East,84,1.0,1.0,62,0.00,,,0.00,Wunderground v.1.15,2013-03-02 04:10:00,
2013-03-01 23:20:00,31.6,20.4,29.68,East,84,0.0,0.0,63,0.00,,,0.00,Wunderground v.1.15,2013-03-02 04:20:00,
2013-03-01 23:30:00,31.6,20.4,29.68,NNE,22,0.0,2.0,63,0.00,,,0.00,Wunderground v.1.15,2013-03-02 04:30:00,
2013-03-01 23:40:00,31.5,20.3,29.68,NNE,22,0.0,0.0,63,0.00,,,0.00,Wunderground v.1.15,2013-03-02 04:40:00,
2013-03-01 23:50:00,31.5,20.3,29.68,NNE,22,0.0,0.0,63,0.00,,,0.00,Wunderground v.1.15,2013-03-02 04:50:00,